Weather History for Oscoda, MI

Change the Weather History Date:

Saturday, May 3, 2014

  Actual Average Record
Temperature  
Mean Temperature 44 °F -  
Max Temperature 51 °F 58 °F 78 °F (2006)
Min Temperature 38 °F 39 °F 26 °F (2003)
Degree Days  
Heating Degree Days 20    
Moisture  
Dew Point 42 °F    
Average Humidity 87    
Maximum Humidity 96    
Minimum Humidity 68    
Precipitation  
Precipitation 0.31 in - - ()
Sea Level Pressure  
Sea Level Pressure 29.66 in    
Wind  
Wind Speed 7 mph (WSW)    
Max Wind Speed 21 mph    
Max Gust Speed 29 mph    
Visibility 7 miles    
Events Rain    
Averages and records for this station are not official NWS values.
T = Trace of Precipitation, MM = Missing Value Source: NWS Daily Summary

Daily Weather History Graph

Daily Weather History Graph

Search for Another Location

Airport:

Trip Planner

Search our weather history database for the weather conditions in past years. The results will help you decide how hot, cold, wet, or windy it might be!

Date:

Astronomy

May. 03, 2014 Rise Set
Actual Time 6:21 AM EDT 8:40 PM EDT
Civil Twilight 5:49 AM EDT 9:12 PM EDT
Nautical Twilight 5:09 AM EDT 9:52 PM EDT
Astronomical Twilight 4:24 AM EDT 10:37 PM EDT
Moon 9:48 AM EDT (5/3) 12:02 AM EDT (5/3)
Length of Visible Light 15h 23m
Length of Day
14h 19m
Waxing Crescent, 19% of the Moon is Illuminated
May 3
Waxing Crescent
May 6
First Quarter
May 14
Full
May 21
Last Quarter
May 28
New

Hourly Weather History & Observations

Time (EDT) Temp. Windchill Dew Point Humidity Pressure Visibility Wind Dir Wind Speed Gust Speed Precip Events Conditions
12:14 AM 46.2 °F 42.7 °F 44.2 °F 93% 29.69 in 10.0 mi SW 6.9 mph - N/A   Drizzle
12:33 AM 46.0 °F 43.1 °F 44.2 °F 93% 29.69 in 7.0 mi SSW 5.8 mph - N/A Rain Light Rain
12:54 AM 46.0 °F 41.9 °F 44.2 °F 93% 29.69 in 7.0 mi SW 8.1 mph - N/A   Drizzle
1:14 AM 46.0 °F 41.9 °F 44.4 °F 94% 29.69 in 7.0 mi SW 8.1 mph - 0.01 in Rain Rain
1:33 AM 45.9 °F 42.9 °F 44.2 °F 94% 29.68 in 7.0 mi SW 5.8 mph - 0.01 in   Heavy Drizzle
1:54 AM 45.7 °F 42.0 °F 44.1 °F 94% 29.68 in 5.0 mi WSW 6.9 mph - 0.02 in Rain Light Rain
2:14 AM 45.5 °F 41.8 °F 43.3 °F 92% 29.68 in 10.0 mi WSW 6.9 mph - N/A Rain Rain
2:33 AM 45.5 °F 43.2 °F 43.3 °F 92% 29.67 in 10.0 mi WSW 4.6 mph - N/A   Light Drizzle
2:54 AM 45.1 °F 42.8 °F 43.7 °F 95% 29.67 in 10.0 mi SW 4.6 mph - N/A   Overcast
3:13 AM 45.1 °F 42.8 °F 43.7 °F 95% 29.67 in 10.0 mi SSW 4.6 mph - N/A   Overcast
3:34 AM 44.4 °F 42.0 °F 42.8 °F 94% 29.67 in 10.0 mi SW 4.6 mph - N/A   Overcast
3:53 AM 43.7 °F 41.1 °F 42.3 °F 95% 29.67 in 7.0 mi SSW 4.6 mph - N/A   Mostly Cloudy
4:14 AM 43.9 °F 41.3 °F 42.3 °F 94% 29.66 in 7.0 mi SSW 4.6 mph - N/A   Mostly Cloudy
4:34 AM 43.3 °F - 41.9 °F 95% 29.66 in 7.0 mi Calm Calm - N/A   Scattered Clouds
4:54 AM 43.2 °F - 41.9 °F 95% 29.66 in 7.0 mi Calm Calm - N/A   Scattered Clouds
5:14 AM 41.5 °F 39.6 °F 40.1 °F 95% 29.66 in 4.0 mi SSW 3.5 mph - N/A   Scattered Clouds
5:33 AM 42.1 °F 39.2 °F 41.0 °F 96% 29.65 in 5.0 mi SSW 4.6 mph - N/A   Mostly Cloudy
5:54 AM 43.3 °F 40.7 °F 42.3 °F 96% 29.65 in 5.0 mi SSW 4.6 mph - N/A   Scattered Clouds
6:14 AM 43.7 °F 42.1 °F 42.3 °F 95% 29.65 in 5.0 mi South 3.5 mph - N/A   Mostly Cloudy
6:33 AM 43.7 °F 40.3 °F 42.3 °F 95% 29.65 in 4.0 mi SSW 5.8 mph - N/A   Overcast
6:54 AM 44.1 °F 40.1 °F 42.8 °F 95% 29.65 in 4.0 mi SSW 6.9 mph - N/A   Overcast
7:14 AM 44.4 °F 42.0 °F 43.0 °F 95% 29.65 in 4.0 mi SSW 4.6 mph - N/A   Overcast
7:33 AM 44.8 °F 42.4 °F 43.7 °F 96% 29.64 in 3.0 mi SW 4.6 mph - N/A   Overcast
7:54 AM 45.3 °F 43.0 °F 43.9 °F 95% 29.64 in 3.0 mi SSW 4.6 mph - N/A   Overcast
8:14 AM 45.5 °F 43.2 °F 43.9 °F 94% 29.64 in 3.0 mi SSW 4.6 mph - N/A Rain Light Rain
8:33 AM 46.2 °F - 44.8 °F 95% 29.63 in 2.5 mi North - - N/A Rain Rain
8:54 AM 47.3 °F - 45.5 °F 93% 29.63 in 3.0 mi SSW 5.8 mph - N/A Rain Rain
9:14 AM 47.3 °F - 45.5 °F 93% 29.63 in 3.0 mi South 5.8 mph - N/A Rain Light Rain
9:33 AM 47.3 °F - 45.5 °F 93% 29.62 in 2.5 mi SSW 5.8 mph - 0.01 in Rain Rain
9:54 AM 47.3 °F - 45.7 °F 94% 29.62 in 3.0 mi SSW 5.8 mph - 0.04 in Rain Rain
10:14 AM 47.7 °F - 45.7 °F 93% 29.62 in 3.0 mi SSW 4.6 mph - 0.01 in Rain Light Rain
10:33 AM 47.7 °F - 45.5 °F 92% 29.61 in 4.0 mi SSW 4.6 mph - 0.02 in Rain Light Rain
10:54 AM 47.3 °F - 44.6 °F 90% 29.60 in 5.0 mi SSW 3.5 mph - 0.04 in Rain Rain
11:14 AM 47.3 °F - 44.6 °F 90% 29.60 in 5.0 mi SW 5.8 mph - 0.01 in Rain Light Rain
11:33 AM 47.1 °F - 43.7 °F 88% 29.60 in 7.0 mi Calm Calm - 0.03 in Rain Rain
11:54 AM 46.8 °F - 43.9 °F 90% 29.60 in 5.0 mi Calm Calm - 0.06 in Rain Rain
12:13 PM 46.6 °F - 43.9 °F 90% 29.59 in 5.0 mi Calm Calm - 0.03 in Rain Rain
12:33 PM 46.9 °F - 44.1 °F 90% 29.59 in 4.0 mi Calm Calm - 0.06 in Rain Rain
12:54 PM 46.8 °F - 44.4 °F 92% 29.58 in 5.0 mi East 3.5 mph - 0.09 in Rain Rain
1:13 PM 46.8 °F - 44.6 °F 92% 29.58 in 5.0 mi Calm Calm - 0.01 in Rain Rain
1:33 PM 46.9 °F - 44.6 °F 92% 29.58 in 7.0 mi Calm Calm - 0.03 in Rain Rain
1:54 PM 47.3 °F - 44.8 °F 91% 29.58 in 7.0 mi Calm Calm - 0.05 in Rain Light Rain
2:13 PM 48.0 °F - 45.1 °F 90% 29.58 in 7.0 mi West 6.9 mph - 0.01 in Rain Light Rain
2:33 PM 47.7 °F - 45.0 °F 90% 29.58 in 10.0 mi NW 9.2 mph - 0.01 in Rain Light Rain
2:54 PM 48.4 °F - 44.2 °F 86% 29.58 in 10.0 mi WNW 6.9 mph - 0.01 in   Overcast
3:13 PM 49.5 °F - 43.3 °F 79% 29.58 in 10.0 mi WNW 9.2 mph - N/A   Overcast
3:34 PM 50.9 °F - 44.1 °F 77% 29.58 in 10.0 mi West 8.1 mph - N/A   Overcast
3:54 PM 50.0 °F - 45.1 °F 83% 29.58 in 7.0 mi West 9.2 mph - N/A Rain Rain
4:13 PM 50.4 °F - 46.6 °F 87% 29.58 in 10.0 mi West 9.2 mph 17.3 mph N/A Rain Light Rain
4:34 PM 51.8 °F - 45.1 °F 78% 29.60 in 10.0 mi WNW 19.6 mph 25.3 mph N/A Rain Light Rain
4:54 PM 50.0 °F - 43.7 °F 79% 29.60 in 10.0 mi WNW 13.8 mph 20.7 mph N/A   Overcast
5:13 PM 51.3 °F - 44.1 °F 76% 29.61 in 10.0 mi West 15.0 mph 19.6 mph N/A   Overcast
5:34 PM 50.4 °F - 43.7 °F 78% 29.62 in 7.0 mi WNW 15.0 mph 28.8 mph N/A Rain Light Rain
5:54 PM 51.3 °F - 41.4 °F 69% 29.63 in 10.0 mi WNW 18.4 mph 28.8 mph N/A   Overcast
6:13 PM 49.6 °F - 40.5 °F 71% 29.65 in 10.0 mi WNW 20.7 mph 27.6 mph N/A   Overcast
6:34 PM 49.5 °F - 39.6 °F 69% 29.66 in 10.0 mi WNW 17.3 mph 27.6 mph N/A   Overcast
6:54 PM 49.5 °F - 39.9 °F 70% 29.68 in 10.0 mi West 16.1 mph 24.2 mph N/A   Overcast
7:13 PM 49.1 °F - 39.0 °F 68% 29.69 in 10.0 mi WNW 13.8 mph 21.9 mph N/A   Overcast
7:34 PM 47.7 °F - 37.6 °F 68% 29.70 in 10.0 mi WNW 17.3 mph 28.8 mph N/A   Overcast
7:53 PM 47.5 °F - 37.9 °F 69% 29.71 in 10.0 mi WNW 17.3 mph 24.2 mph N/A   Overcast
8:13 PM 46.8 °F - 37.8 °F 71% 29.72 in 10.0 mi WNW 13.8 mph 20.7 mph N/A   Mostly Cloudy
8:34 PM 45.9 °F 40.4 °F 37.6 °F 73% 29.73 in 10.0 mi West 11.5 mph 20.7 mph N/A   Overcast
8:53 PM 44.8 °F 39.0 °F 37.4 °F 75% 29.74 in 10.0 mi WNW 11.5 mph 20.7 mph N/A   Mostly Cloudy
9:13 PM 43.7 °F 37.7 °F 37.4 °F 78% 29.75 in 10.0 mi West 11.5 mph - N/A   Mostly Cloudy
9:34 PM 43.0 °F 37.7 °F 37.4 °F 81% 29.75 in 10.0 mi WNW 9.2 mph - N/A   Scattered Clouds
9:53 PM 42.8 °F 38.0 °F 37.0 °F 80% 29.76 in 10.0 mi WNW 8.1 mph - N/A   Scattered Clouds
10:14 PM 42.3 °F 36.8 °F 37.0 °F 82% 29.77 in 10.0 mi WNW 9.2 mph - N/A   Scattered Clouds
10:34 PM 41.5 °F 36.4 °F 36.5 °F 82% 29.77 in 10.0 mi WNW 8.1 mph - N/A   Scattered Clouds
10:53 PM 40.6 °F 36.0 °F 36.1 °F 84% 29.77 in 10.0 mi West 6.9 mph - N/A   Clear
11:14 PM 39.9 °F 35.8 °F 35.8 °F 85% 29.78 in 10.0 mi West 5.8 mph - N/A   Clear
11:34 PM 38.5 °F 34.1 °F 35.6 °F 89% 29.78 in 10.0 mi WSW 5.8 mph - N/A   Clear
11:53 PM 38.3 °F 33.2 °F 35.8 °F 91% 29.78 in 10.0 mi WSW 6.9 mph - N/A   Clear